Zurück zum Katalog

THOR ABLESTAR DEB

AktivLEO
NORAD 351·DEBRIS·🇺🇸 United States

Gestartet Jun 29, 1961 von Cape Canaveral Space Force Station

Loading…

Nächste Überflüge (nächste 24 Stunden)

TLE

AktuellSource: Space-Track

Epoche: Sep 14, 2026, 12:57 UTC

1 00351U 61015DR  26257.54022261  .00007165  00000-0  78842-3 0  9997
2 00351  66.7398 190.0619 0029817 245.0032 114.7999 14.87832240391023

Verfolge THOR ABLESTAR DEB in Echtzeit mit AllMySat

Download on the App Store